Wind_Speed
25 25 25 25 24 23 23 23 23 21 20 20 20 19 18 17 16 15 14 15 15 14 14 14 14 13 13 14 13 13 14 15 16 16 16 16 17 18 18 18 19 19 19 19
26 26 27 27 26 26 24 23 23 23 22 21 21 20 19 18 18 17 17 16 16 14 14 14 15 15 15 15 15 15 16 16 17 17 18 18 18 19 19 20 20 20 19 20
28 28 28 28 27 26 26 25 24 24 23 22 22 21 21 19 19 18 18 17 17 16 16 17 17 17 17 17 17 17 18 18 18 19 19 19 20 20 21 21 21 21 22 22
29 29 29 27 27 27 26 26 25 25 25 24 23 23 23 22 21 20 19 19 18 19 19 19 20 19 19 19 19 19 19 20 20 20 21 21 22 22 23 23 23 23 23 23
30 30 29 28 28 28 28 26 26 26 25 24 24 24 24 24 23 23 22 22 21 21 21 21 22 22 21 21 22 21 21 22 23 22 22 22 23 23 24 24 24 24 25 25
31 31 31 29 29 29 29 28 27 26 26 25 25 25 24 24 25 25 24 24 24 23 22 22 23 23 23 23 23 22 23 23 24 25 24 24 24 25 25 26 26 26 26 26
31 31 31 30 30 29 30 30 29 28 28 27 26 26 26 26 26 27 27 26 26 25 25 24 25 25 25 25 24 24 24 25 25 26 26 26 26 25 25 26 26 27 27 27
32 31 30 30 30 30 31 31 30 30 29 29 28 27 27 28 28 28 28 28 28 28 28 28 27 26 26 27 27 27 27 27 27 27 28 29 28 27 27 27 28 28 29 29
33 32 31 31 31 30 31 31 31 30 29 29 29 29 28 28 28 29 29 29 29 30 30 30 30 28 28 29 29 29 28 28 29 29 30 29 29 29 29 29 30 30 31 31
33 33 33 32 31 31 31 31 31 30 30 30 29 29 30 30 29 29 30 30 31 31 32 32 31 30 30 29 29 29 30 30 31 31 31 31 32 32 32 32 32 31 32 32
34 33 34 33 33 32 32 32 31 31 31 30 30 29 29 29 29 30 30 30 30 32 33 33 32 31 30 30 30 31 31 32 32 33 33 33 33 33 34 34 34 34 33 33
33 34 34 34 34 34 33 32 32 32 31 30 30 29 29 29 29 29 30 30 31 31 32 33 33 32 31 31 30 31 32 32 32 33 34 35 34 35 35 35 35 34 34 33
34 34 34 34 34 34 33 32 32 33 32 30 30 29 30 30 29 30 30 31 31 31 32 32 33 33 32 31 31 32 32 33 33 33 34 35 36 36 35 35 35 34 33 32
33 33 33 32 32 32 33 32 32 32 32 32 32 32 32 32 32 31 31 31 31 32 32 32 32 32 32 32 32 32 33 33 34 34 35 35 35 35 35 34 34 33 33 32
32 32 31 31 32 32 31 31 32 32 33 33 33 33 33 33 33 33 32 32 31 32 32 32 32 32 32 32 32 33 33 34 34 35 35 35 35 35 34 34 34 32 31 30
30 30 30 31 32 32 31 31 32 33 33 33 34 34 34 34 35 34 33 33 32 32 32 32 33 33 34 34 34 34 34 34 34 35 35 36 36 35 34 33 31 29 29 29
30 30 30 30 30 31 32 32 33 34 34 33 33 34 34 34 34 33 33 33 33 33 33 33 34 33 34 34 34 34 34 34 34 35 35 35 35 34 33 31 30 28 27 27
30 30 30 30 30 30 32 33 33 33 34 34 33 33 34 33 33 33 34 34 34 35 35 35 35 35 35 35 35 35 35 35 35 34 34 34 34 32 31 30 29 28 27 26
29 30 31 31 31 31 30 31 32 32 33 33 34 34 34 33 32 33 33 34 34 34 34 34 35 35 35 36 36 35 35 35 34 34 33 33 32 30 30 30 29 28 27 26
28 29 30 31 31 31 31 30 31 31 32 32 33 33 33 33 32 33 33 32 33 33 33 34 34 34 35 35 34 34 34 33 33 32 32 31 30 29 29 29 28 27 26 26
26 26 27 28 29 30 30 30 30 30 31 31 31 32 33 33 33 33 33 33 33 33 33 33 33 34 34 33 33 32 32 32 31 31 31 30 30 29 28 27 27 26 26 26
23 23 24 25 25 26 27 28 28 28 29 29 31 31 31 32 33 33 34 34 34 33 33 33 32 33 33 33 32 32 31 31 31 30 30 29 28 28 27 27 25 24 25 25
20 20 21 22 22 23 24 25 25 26 27 28 28 28 28 29 30 32 32 33 32 31 31 31 31 32 32 32 31 31 30 30 30 29 28 27 27 27 27 26 25 25 25 25
19 20 20 21 22 22 22 22 23 23 24 25 25 25 26 27 27 28 29 29 29 28 28 29 30 30 30 30 29 29 28 28 27 27 26 26 25 25 25 25 25 25 25 25
19 19 20 19 19 20 20 21 21 22 23 24 24 24 24 24 25 25 25 26 26 26 26 27 27 27 27 26 27 27 27 26 25 25 24 23 24 24 24 24 24 24 24 24
18 19 19 19 19 18 19 19 20 20 21 21 21 22 22 22 23 23 23 23 22 22 23 23 23 23 23 24 25 25 25 25 24 24 23 23 23 23 23 23 23 23 23 23
16 16 15 15 16 17 17 18 19 19 20 20 19 19 20 20 20 21 21 21 21 21 21 22 22 21 21 22 22 22 22 23 23 23 22 22 23 22 22 22 23 23 23 23
Wind_Direction
242 242 242 243 246 250 254 259 263 266 269 270 267 265 266 265 267 272 276 281 280 273 272 272 274 276 279 282 282 284 285 287 291 293 295 298 300 301 301 303 305 305 306 305
245 247 246 245 246 249 253 256 260 263 266 267 266 263 263 264 268 272 275 277 277 275 270 271 272 273 277 279 278 280 284 288 290 293 295 296 298 298 299 300 302 303 303 304
248 250 250 250 249 249 252 256 260 263 265 265 264 262 260 262 265 268 271 273 272 272 272 268 269 271 275 276 277 281 284 288 291 291 292 294 296 296 297 297 298 299 301 303
251 251 252 253 252 252 254 257 260 262 263 264 263 262 261 261 262 265 269 271 270 270 272 271 270 272 275 276 277 279 283 285 287 287 288 290 292 293 294 294 295 296 298 300
252 254 254 253 254 253 254 256 258 260 262 263 261 260 260 260 262 265 268 271 272 271 270 272 274 274 275 278 278 280 282 284 286 287 288 289 290 291 293 295 295 296 297 297
255 256 256 255 255 253 254 255 256 258 259 261 262 260 259 260 261 264 267 270 271 271 270 271 273 274 275 278 279 279 282 284 285 286 286 287 288 290 292 294 295 296 297 299
257 259 259 256 255 254 254 255 256 258 259 260 261 261 259 258 260 262 264 267 270 272 271 272 274 275 276 277 280 281 282 283 284 284 285 285 286 289 290 293 294 295 296 297
257 258 259 256 256 255 255 254 256 258 259 260 260 260 261 261 261 262 264 266 267 270 272 273 274 273 275 276 278 281 282 282 282 282 283 285 286 288 289 291 292 294 295 296
257 259 260 259 258 258 257 256 256 258 260 261 261 261 262 262 261 261 262 264 265 267 269 271 273 272 274 276 278 280 281 283 282 283 283 286 286 288 289 290 291 293 294 295
256 257 258 259 259 258 257 257 256 257 258 259 260 262 263 262 263 261 262 263 265 266 268 270 271 271 272 274 276 279 280 283 282 282 284 284 286 287 288 290 291 291 292 293
256 256 258 258 258 259 259 257 256 256 257 258 260 261 262 262 264 264 264 265 266 268 269 270 272 269 270 273 276 279 281 282 283 282 283 284 284 285 287 290 290 289 290 290
257 257 258 258 258 258 258 257 255 255 256 256 258 260 261 262 264 267 267 266 268 270 270 270 269 269 271 273 277 279 281 282 283 284 285 285 284 285 288 289 290 288 288 288
257 257 258 259 259 259 257 255 256 255 255 257 258 259 260 262 263 267 268 268 269 270 271 270 269 268 272 274 277 279 281 282 284 286 286 286 286 287 287 288 289 288 287 288
258 258 257 258 259 258 257 256 256 255 256 258 258 258 259 262 264 266 266 266 267 269 270 271 271 272 273 275 277 279 280 282 284 285 287 288 288 286 286 287 288 287 286 287
258 258 257 256 256 256 256 256 255 255 254 256 258 260 261 262 263 265 266 266 267 268 269 271 272 272 273 275 277 279 281 283 284 285 286 288 288 286 286 286 286 285 285 286
255 256 258 257 255 254 254 255 255 256 257 258 260 261 262 263 264 265 267 268 267 268 269 271 272 274 274 274 277 279 282 284 285 285 286 287 288 287 286 286 287 287 287 287
256 257 259 260 258 255 254 254 255 256 257 258 259 261 262 264 265 266 266 267 268 269 270 271 273 274 276 277 278 279 281 283 285 285 286 287 286 285 284 283 284 285 286 288
257 256 257 258 257 257 255 254 256 256 257 259 260 262 263 265 265 265 265 266 267 269 271 271 272 273 275 277 278 280 281 283 285 285 286 287 285 284 282 282 283 283 284 284
260 256 256 257 259 259 258 257 257 257 258 258 259 261 262 263 264 264 264 265 267 269 270 271 272 273 274 275 277 279 281 282 283 283 284 285 285 284 283 282 282 283 283 282
261 260 257 256 258 258 258 259 259 259 258 259 260 261 263 263 264 265 266 267 268 269 270 271 272 274 276 277 277 279 280 281 282 282 283 283 283 282 282 281 281 282 282 282
263 262 259 258 257 258 258 259 259 259 260 261 262 262 263 264 265 266 267 268 268 269 270 271 273 275 276 277 278 280 280 280 280 281 281 281 280 280 281 281 281 281 281 282
263 262 260 260 260 259 259 261 261 261 261 261 262 263 263 264 266 268 270 270 270 270 270 272 273 275 276 277 279 278 278 279 280 281 280 280 279 279 279 280 280 279 280 280
263 263 262 260 259 260 260 262 261 261 261 262 263 265 266 268 269 271 272 272 271 271 271 272 274 275 276 277 278 278 277 278 279 280 280 280 279 278 279 279 278 278 277 278
263 262 264 262 260 260 260 262 264 265 266 267 268 269 271 272 272 273 273 273 273 274 274 274 274 274 274 275 276 276 276 278 278 278 279 280 280 280 279 278 277 278 278 278
266 267 268 264 263 264 264 264 265 266 268 269 270 271 272 273 274 274 274 276 274 274 275 275 274 273 274 275 275 275 275 276 276 277 279 279 280 279 278 277 278 279 279 280
272 274 271 267 264 263 262 263 265 267 270 271 271 272 274 275 275 276 277 277 275 274 275 275 275 274 275 275 275 275 275 275 276 277 277 278 279 280 280 280 280 281 282 282
275 272 266 263 262 264 265 266 268 270 273 274 274 275 275 276 278 280 279 277 276 275 276 278 277 277 278 278 276 276 277 277 277 277 278 278 278 280 281 282 282 283 284 284
Height
5866 5868 5869 5871 5873 5874 5875 5876 5877 5878 5879 5880 5881 5882 5883 5883 5884 5884 5885 5885 5884 5884 5883 5883 5883 5883 5882 5882 5882 5881 5880 5880 5879 5877 5876 5875 5873 5872 5870 5868 5866 5864 5862 5860
5860 5862 5863 5865 5868 5869 5870 5871 5872 5873 5874 5875 5876 5877 5878 5879 5880 5880 5881 5881 5880 5880 5880 5879 5879 5879 5878 5878 5877 5877 5876 5875 5874 5873 5872 5870 5869 5867 5866 5864 5862 5860 5858 5855
5854 5856 5857 5859 5862 5863 5865 5866 5867 5868 5870 5870 5871 5872 5873 5874 5875 5876 5876 5876 5876 5875 5875 5875 5874 5874 5874 5873 5873 5872 5871 5870 5869 5868 5867 5866 5864 5863 5861 5859 5857 5855 5852 5850
5847 5850 5851 5856 5856 5857 5859 5860 5861 5862 5863 5864 5865 5866 5867 5869 5870 5870 5871 5871 5871 5871 5870 5870 5869 5869 5869 5868 5868 5867 5866 5865 5863 5862 5861 5860 5859 5857 5855 5854 5851 5849 5847 5844
5840 5841 5844 5848 5849 5850 5852 5853 5855 5856 5857 5858 5859 5860 5861 5862 5863 5864 5864 5865 5865 5864 5864 5864 5864 5863 5863 5862 5862 5861 5860 5859 5858 5856 5855 5854 5853 5851 5849 5847 5845 5843 5841 5838
5833 5834 5837 5841 5842 5842 5845 5846 5848 5849 5850 5852 5853 5854 5856 5856 5857 5857 5858 5858 5858 5857 5858 5858 5858 5857 5857 5856 5855 5855 5854 5852 5851 5850 5849 5847 5846 5844 5842 5840 5838 5836 5834 5831
5826 5827 5829 5833 5833 5836 5838 5840 5841 5842 5843 5845 5846 5848 5849 5849 5850 5851 5851 5851 5851 5851 5851 5850 5850 5850 5850 5849 5849 5848 5847 5845 5844 5843 5841 5840 5839 5837 5835 5833 5831 5829 5827 5824
5818 5820 5824 5824 5825 5828 5830 5831 5832 5834 5835 5837 5838 5840 5841 5842 5842 5843 5843 5844 5844 5844 5843 5843 5842 5842 5842 5841 5841 5840 5839 5838 5837 5835 5834 5832 5831 5829 5827 5825 5823 5821 5819 5817
5812 5815 5815 5816 5818 5820 5821 5823 5824 5826 5827 5829 5831 5832 5833 5833 5834 5835 5835 5836 5836 5836 5835 5835 5834 5833 5834 5833 5832 5832 5831 5830 5828 5827 5826 5825 5823 5821 5820 5817 5815 5813 5811 5809
5803 5805 5806 5808 5810 5812 5813 5815 5816 5818 5819 5821 5822 5824 5824 5825 5825 5826 5826 5827 5827 5827 5827 5826 5826 5825 5825 5824 5824 5823 5822 5821 5820 5819 5818 5816 5815 5813 5811 5809 5807 5805 5802 5800
5794 5796 5798 5800 5801 5803 5804 5806 5808 5809 5811 5812 5814 5815 5815 5816 5816 5817 5817 5817 5817 5817 5817 5817 5817 5817 5816 5816 5816 5815 5814 5813 5811 5810 5809 5807 5806 5804 5802 5800 5798 5796 5794 5791
5786 5788 5789 5791 5792 5794 5795 5797 5799 5800 5802 5803 5804 5806 5806 5807 5807 5808 5808 5808 5807 5808 5808 5808 5808 5808 5808 5807 5806 5806 5805 5804 5802 5801 5799 5798 5796 5794 5792 5790 5788 5785 5783 5781
5776 5778 5780 5781 5783 5785 5786 5788 5790 5791 5793 5794 5795 5797 5798 5798 5798 5798 5798 5798 5798 5798 5798 5798 5798 5799 5799 5798 5797 5797 5796 5795 5793 5792 5790 5788 5786 5785 5783 5781 5778 5776 5774 5772
5767 5768 5770 5772 5774 5776 5777 5779 5780 5782 5784 5785 5786 5787 5788 5789 5789 5789 5789 5789 5789 5789 5789 5789 5789 5789 5789 5789 5788 5787 5787 5786 5784 5782 5781 5779 5776 5775 5773 5771 5769 5767 5765 5763
5758 5759 5761 5763 5765 5766 5768 5769 5771 5773 5774 5776 5777 5778 5778 5779 5780 5780 5779 5779 5780 5780 5780 5780 5780 5780 5779 5779 5779 5778 5777 5776 5774 5773 5771 5769 5767 5765 5763 5761 5760 5758 5756 5755
5749 5750 5752 5754 5755 5757 5759 5761 5762 5763 5764 5765 5766 5767 5768 5769 5770 5771 5771 5770 5770 5770 5770 5770 5770 5770 5770 5769 5769 5768 5767 5766 5764 5762 5761 5759 5757 5755 5754 5752 5750 5749 5747 5746
5741 5743 5743 5745 5747 5748 5750 5751 5753 5754 5755 5755 5757 5757 5758 5759 5760 5760 5761 5760 5760 5761 5761 5761 5760 5760 5759 5759 5759 5758 5757 5756 5754 5753 5751 5749 5747 5746 5744 5743 5742 5740 5739 5738
5732 5733 5735 5736 5737 5739 5740 5741 5743 5744 5745 5746 5747 5748 5748 5749 5750 5750 5751 5751 5750 5751 5751 5750 5750 5750 5749 5749 5748 5748 5747 5746 5744 5743 5741 5739 5737 5736 5734 5733 5732 5731 5730 5729
5723 5724 5725 5726 5728 5729 5730 5731 5733 5734 5735 5736 5737 5737 5738 5739 5740 5740 5740 5740 5740 5740 5740 5740 5739 5739 5739 5738 5738 5737 5736 5735 5734 5732 5731 5729 5728 5726 5725 5724 5723 5723 5722 5721
5714 5714 5715 5717 5718 5719 5721 5722 5723 5724 5725 5726 5727 5727 5728 5729 5729 5729 5729 5729 5729 5729 5729 5729 5729 5728 5728 5727 5727 5726 5725 5724 5723 5722 5721 5720 5718 5717 5716 5715 5715 5714 5713 5713
5705 5705 5706 5707 5708 5710 5711 5713 5714 5715 5716 5716 5717 5717 5718 5719 5719 5719 5719 5719 5719 5719 5718 5718 5718 5718 5717 5716 5716 5715 5714 5714 5713 5712 5711 5710 5709 5708 5707 5707 5706 5705 5705 5704
5697 5697 5698 5698 5700 5701 5703 5704 5705 5705 5706 5707 5707 5707 5708 5709 5709 5709 5709 5709 5708 5708 5707 5707 5707 5707 5706 5706 5705 5705 5704 5704 5703 5702 5701 5700 5699 5699 5699 5698 5697 5697 5697 5696
5691 5691 5691 5692 5693 5694 5695 5695 5696 5697 5697 5698 5698 5699 5699 5699 5699 5699 5699 5698 5697 5697 5697 5697 5697 5696 5696 5695 5695 5695 5694 5694 5693 5693 5692 5692 5691 5691 5690 5690 5689 5689 5689 5688
5685 5685 5685 5685 5686 5687 5688 5688 5689 5689 5690 5690 5690 5691 5691 5690 5690 5689 5689 5688 5687 5687 5687 5687 5686 5686 5686 5686 5686 5686 5685 5685 5684 5684 5684 5684 5683 5682 5682 5682 5681 5681 5680 5680
5679 5679 5679 5680 5680 5681 5682 5682 5683 5683 5683 5683 5683 5683 5682 5682 5681 5681 5680 5679 5679 5678 5678 5677 5677 5677 5677 5677 5677 5677 5677 5677 5676 5676 5676 5676 5676 5675 5674 5674 5673 5673 5672 5672
5674 5674 5674 5674 5675 5676 5676 5677 5677 5677 5677 5677 5676 5676 5675 5674 5674 5673 5672 5671 5671 5671 5670 5670 5669 5669 5669 5669 5669 5669 5669 5669 5668 5668 5669 5669 5668 5668 5667 5666 5666 5665 5664 5664
5669 5669 5669 5670 5670 5670 5671 5671 5671 5671 5671 5670 5670 5669 5668 5667 5667 5666 5665 5665 5664 5664 5663 5663 5663 5662 5662 5662 5662 5661 5661 5661 5661 5661 5661 5661 5661 5661 5660 5659 5658 5658 5657 5656